Flag for Canada Weather past 2 weeks in Rankin Inlet, Nunavut, Canada

Now
46 °F

Broken clouds.


Feels Like: 40 °F
Forecast: N/A
Wind: 16 mph from Northeast

Location: Rankin Inlet

Current Time: Sep 3, 2015 at 6:44:23 PM

Latest Report: Sep 3, 2015 at 6:00 PM


Visibility: 15 mi

Pressure: 30.03 "Hg

Humidity: 57%

Dew point: 32 °F

Location of Rankin InletLocation

Historic Weather in Rankin Inlet — Graph

°F

Rankin Inlet temperature yesterday

Maximum temperature yesterday: 48 °F (at 3:00 PM)
Minimum temperature yesterday: 45 °F (at 12:00 AM)
Average temperature yesterday: 45 °F

Past Weeks' High & Low Weather Summary

 TemperatureHumidityPressure
High57 °F (Aug 28, 3:00 PM)100% (Aug 20, 6:00 AM)30.14 "Hg (Aug 20, 6:00 AM)
Low39 °F (Aug 25, 4:49 AM)41% (Aug 28, 4:00 PM)29.68 "Hg (Aug 27, 1:00 PM)
Average46 °F84%29.93 "Hg
* Reported Aug 19 5:00 PM — Sep 3 5:00 PM, Rankin Inlet, Weather by CustomWeather, © 2015

Note: Actual official high and low records may vary slightly from our data, if they occured in-between our weather recording intervals... More about our weather records

Advertising

Rankin Inlet weather history for previous 24 hours

 ConditionsComfort  
Time TempWeatherWind HumidityBarometerVisibility
5:00 PM
Thu, Sep 3
46 °FBroken clouds.20 mph66%30.03 "Hg15 mi
4:00 PM46 °FBroken clouds.17 mph76%30.02 "Hg15 mi
3:00 PM46 °FPartly sunny.20 mph82%30.00 "Hg15 mi
2:00 PM45 °FOvercast.21 mph87%29.99 "Hg10 mi
1:00 PM46 °FOvercast.15 mph87%29.98 "Hg10 mi
12:00 PM46 °FPartly sunny.20 mph87%29.96 "Hg10 mi
11:00 AM46 °FFog.17 mph87%29.94 "Hg6 mi
10:00 AM45 °FFog.21 mph100%29.92 "Hg4 mi
9:00 AM45 °FDrizzle. Fog.15 mph100%29.91 "Hg3 mi
8:00 AM45 °FLow clouds.13 mph100%29.90 "Hg8 mi
7:00 AM45 °FDrizzle. Fog.13 mph100%29.88 "Hg2 mi
6:00 AM45 °FDrizzle. Fog.10 mph100%29.88 "Hg3 mi
5:00 AM45 °FDrizzle. Fog.9 mph100%29.87 "Hg6 mi
4:00 AM45 °FDrizzle. Fog.7 mph100%29.87 "Hg4 mi
3:00 AM45 °FDrizzle. Fog.10 mph100%29.88 "Hg3 mi
2:00 AM45 °FDrizzle. Fog.12 mph100%29.88 "Hg6 mi
1:00 AM45 °FDrizzle. Fog.15 mph100%29.88 "Hg6 mi
12:00 AM45 °FDrizzle. Fog.15 mph100%29.89 "Hg6 mi
11:00 PM
Wed, Sep 2
45 °FDrizzle. Mostly cloudy.13 mph100%29.90 "Hg10 mi
10:00 PM45 °FOvercast.13 mph100%29.90 "Hg8 mi
9:00 PM45 °FDrizzle. Cloudy.14 mph100%29.91 "Hg8 mi
8:00 PM45 °FDrizzle. Low clouds.10 mph100%29.92 "Hg10 mi
7:00 PM46 °FDrizzle. Broken clouds.12 mph93%29.91 "Hg8 mi
6:00 PM46 °FDrizzle. Broken clouds.14 mph93%29.91 "Hg10 mi
Weather by CustomWeather, © 2015

See weather overviewHow to use our weather pages